TimeCDT,TemperatureF,Dew PointF,Humidity,Sea Level PressureIn,VisibilityMPH,Wind Direction,Wind SpeedMPH,Gust SpeedMPH,PrecipitationIn,Events,Conditions,WindDirDegrees,DateUTC
12:52 AM,52.0,46.0,80,29.98,10.0,SE,4.6,-,N/A,,Clear,130,2013-09-23 05:52:00
1:52 AM,48.9,44.1,83,29.99,10.0,ESE,3.5,-,N/A,,Clear,110,2013-09-23 06:52:00
2:52 AM,50.0,45.0,83,29.99,10.0,ESE,3.5,-,N/A,,Clear,120,2013-09-23 07:52:00
3:52 AM,48.9,45.0,86,29.98,10.0,ESE,6.9,-,N/A,,Clear,120,2013-09-23 08:52:00
4:52 AM,48.9,46.0,90,29.99,10.0,ESE,6.9,-,N/A,,Clear,110,2013-09-23 09:52:00
5:52 AM,46.9,45.0,93,29.99,10.0,ESE,6.9,-,N/A,,Clear,120,2013-09-23 10:52:00
6:52 AM,46.9,44.1,90,30.01,9.0,East,5.8,-,N/A,,Clear,100,2013-09-23 11:52:00
7:52 AM,50.0,46.0,86,30.02,10.0,ESE,5.8,-,N/A,,Clear,110,2013-09-23 12:52:00
8:52 AM,54.0,46.9,77,30.03,10.0,SE,10.4,-,N/A,,Clear,130,2013-09-23 13:52:00
9:52 AM,57.9,46.9,67,30.04,10.0,SE,9.2,-,N/A,,Clear,140,2013-09-23 14:52:00
10:52 AM,63.0,48.9,60,30.03,10.0,SSE,8.1,16.1,N/A,,Clear,150,2013-09-23 15:52:00
11:52 AM,66.9,50.0,54,30.03,10.0,SE,9.2,16.1,N/A,,Clear,130,2013-09-23 16:52:00
12:52 PM,69.1,50.0,51,30.01,10.0,Variable,5.8,16.1,N/A,,Clear,0,2013-09-23 17:52:00
1:52 PM,71.1,48.9,45,29.97,10.0,SE,9.2,18.4,N/A,,Clear,140,2013-09-23 18:52:00
2:52 PM,73.0,48.9,42,29.95,10.0,SE,10.4,19.6,N/A,,Clear,140,2013-09-23 19:52:00
3:52 PM,73.0,48.9,42,29.95,10.0,SE,11.5,21.9,N/A,,Clear,130,2013-09-23 20:52:00
4:52 PM,73.0,48.9,42,29.94,10.0,SSE,13.8,21.9,N/A,,Clear,150,2013-09-23 21:52:00
5:52 PM,72.0,50.0,46,29.93,10.0,SE,10.4,19.6,N/A,,Clear,140,2013-09-23 22:52:00
6:52 PM,66.9,48.9,52,29.93,10.0,SE,8.1,-,N/A,,Clear,130,2013-09-23 23:52:00
7:52 PM,62.1,50.0,65,29.93,10.0,ESE,8.1,-,N/A,,Clear,120,2013-09-24 00:52:00
8:52 PM,60.1,48.9,67,29.93,10.0,ESE,8.1,-,N/A,,Clear,110,2013-09-24 01:52:00
9:52 PM,57.0,48.9,74,29.95,10.0,ESE,6.9,-,N/A,,Clear,120,2013-09-24 02:52:00
10:52 PM,55.9,48.0,75,29.94,10.0,ESE,9.2,-,N/A,,Clear,110,2013-09-24 03:52:00
11:52 PM,54.0,48.0,80,29.96,10.0,ESE,4.6,-,N/A,,Clear,120,2013-09-24 04:52:00